Total_Precipitation_Accumulation
0.56 0.82 1.15 1.54 2.05 2.64 3.10 3.12 2.51 2.02 1.71 1.41 1.03 0.84 0.78 0.64 0.43 0.30 0.21 0.14 0.10 0.06 0.04 0.01 0.00 0.00 0.00 0.00 0.00 0.01 0.02 0.02 0.03 0.04 0.02 0.02 0.02 0.03 0.06 0.06 0.02 0.04 0.11
0.80 1.11 1.47 1.62 1.54 1.66 1.75 1.38 1.10 0.92 0.78 0.67 0.49 0.38 0.33 0.28 0.21 0.17 0.12 0.09 0.07 0.05 0.04 0.01 0.00 0.00 0.00 0.00 0.00 0.00 0.00 0.00 0.00 0.01 0.01 0.00 0.00 0.01 0.03 0.06 0.07 0.08 0.15
1.35 1.52 1.36 1.15 1.07 1.04 0.90 0.61 0.47 0.47 0.41 0.33 0.23 0.20 0.17 0.15 0.12 0.11 0.10 0.09 0.06 0.04 0.03 0.02 0.01 0.00 0.00 0.00 0.00 0.00 0.01 0.00 0.00 0.00 0.01 0.01 0.00 0.00 0.02 0.06 0.09 0.11 0.14
1.59 1.39 0.75 0.47 0.46 0.47 0.48 0.51 0.52 0.41 0.30 0.26 0.18 0.14 0.11 0.10 0.09 0.10 0.10 0.10 0.08 0.06 0.04 0.03 0.02 0.01 0.00 0.00 0.00 0.00 0.01 0.01 0.01 0.01 0.01 0.02 0.03 0.04 0.03 0.05 0.11 0.14 0.13
0.82 0.47 0.19 0.13 0.18 0.28 0.47 0.68 0.66 0.45 0.31 0.27 0.23 0.21 0.19 0.18 0.17 0.16 0.16 0.15 0.14 0.12 0.08 0.06 0.06 0.05 0.02 0.01 0.00 0.01 0.01 0.02 0.02 0.03 0.03 0.03 0.04 0.08 0.10 0.05 0.07 0.13 0.08
0.32 0.16 0.10 0.14 0.21 0.26 0.33 0.42 0.49 0.56 0.51 0.46 0.36 0.33 0.32 0.30 0.27 0.25 0.24 0.23 0.23 0.24 0.20 0.17 0.17 0.18 0.12 0.06 0.03 0.02 0.02 0.03 0.04 0.06 0.06 0.05 0.04 0.05 0.10 0.10 0.09 0.08 0.03
0.16 0.18 0.19 0.22 0.19 0.16 0.15 0.15 0.19 0.29 0.36 0.40 0.42 0.41 0.40 0.36 0.31 0.28 0.24 0.26 0.25 0.26 0.26 0.24 0.26 0.27 0.24 0.18 0.10 0.05 0.03 0.03 0.04 0.05 0.04 0.04 0.04 0.05 0.08 0.08 0.07 0.06 0.07
0.04 0.07 0.08 0.07 0.07 0.07 0.07 0.07 0.07 0.08 0.11 0.14 0.18 0.22 0.28 0.27 0.25 0.30 0.23 0.25 0.29 0.29 0.26 0.23 0.23 0.23 0.24 0.22 0.17 0.10 0.06 0.04 0.04 0.03 0.07 0.11 0.08 0.09 0.07 0.06 0.07 0.09 0.13
0.01 0.01 0.02 0.03 0.04 0.03 0.04 0.04 0.04 0.04 0.04 0.05 0.05 0.06 0.11 0.15 0.16 0.17 0.16 0.17 0.24 0.26 0.24 0.21 0.19 0.18 0.20 0.21 0.19 0.14 0.09 0.05 0.03 0.03 0.08 0.14 0.14 0.13 0.13 0.13 0.15 0.21 0.17
0.01 0.00 0.01 0.01 0.01 0.02 0.02 0.03 0.04 0.03 0.03 0.02 0.02 0.02 0.04 0.08 0.10 0.10 0.12 0.14 0.18 0.21 0.19 0.16 0.13 0.12 0.13 0.14 0.15 0.14 0.13 0.10 0.08 0.08 0.10 0.15 0.18 0.17 0.19 0.21 0.24 0.31 0.29
0.00 0.01 0.00 0.00 0.01 0.01 0.01 0.02 0.02 0.02 0.02 0.02 0.01 0.01 0.01 0.02 0.06 0.10 0.14 0.17 0.19 0.19 0.17 0.15 0.12 0.10 0.10 0.12 0.13 0.14 0.15 0.14 0.12 0.09 0.09 0.13 0.19 0.21 0.22 0.26 0.29 0.31 0.36
0.00 0.00 0.00 0.00 0.01 0.01 0.01 0.01 0.01 0.01 0.01 0.00 0.00 0.00 0.00 0.00 0.01 0.03 0.07 0.13 0.18 0.19 0.19 0.17 0.14 0.10 0.08 0.09 0.09 0.11 0.14 0.18 0.17 0.15 0.14 0.12 0.13 0.15 0.14 0.15 0.21 0.28 0.38
0.00 0.00 0.00 0.00 0.00 0.00 0.00 0.00 0.00 0.00 0.00 0.00 0.00 0.00 0.00 0.00 0.00 0.01 0.01 0.03 0.08 0.13 0.16 0.16 0.14 0.11 0.10 0.08 0.06 0.07 0.09 0.13 0.15 0.17 0.21 0.19 0.17 0.14 0.06 0.03 0.06 0.15 0.30
0.00 0.00 0.00 0.00 0.00 0.00 0.00 0.00 0.00 0.00 0.00 0.00 0.00 0.00 0.01 0.01 0.02 0.02 0.02 0.02 0.02 0.06 0.10 0.13 0.14 0.13 0.11 0.09 0.08 0.07 0.07 0.07 0.09 0.14 0.17 0.16 0.16 0.15 0.09 0.03 0.02 0.08 0.17
0.00 0.00 0.00 0.00 0.00 0.00 0.00 0.00 0.00 0.00 0.00 0.00 0.00 0.00 0.01 0.01 0.02 0.03 0.04 0.04 0.04 0.04 0.08 0.13 0.14 0.13 0.11 0.09 0.09 0.09 0.07 0.07 0.07 0.09 0.12 0.10 0.10 0.09 0.07 0.04 0.04 0.07 0.12
0.00 0.00 0.00 0.00 0.00 0.00 0.00 0.00 0.00 0.00 0.00 0.01 0.01 0.01 0.02 0.02 0.03 0.03 0.03 0.03 0.03 0.04 0.06 0.10 0.13 0.12 0.11 0.09 0.07 0.07 0.08 0.09 0.09 0.11 0.11 0.09 0.07 0.07 0.06 0.05 0.04 0.04 0.07
0.00 0.00 0.00 0.00 0.00 0.00 0.00 0.00 0.00 0.00 0.00 0.00 0.00 0.01 0.02 0.03 0.03 0.04 0.04 0.04 0.04 0.05 0.06 0.07 0.11 0.12 0.13 0.12 0.07 0.06 0.08 0.09 0.11 0.13 0.14 0.11 0.07 0.06 0.06 0.05 0.04 0.03 0.03
0.00 0.00 0.00 0.00 0.00 0.00 0.00 0.00 0.00 0.00 0.00 0.00 0.01 0.01 0.02 0.03 0.04 0.06 0.06 0.07 0.07 0.07 0.06 0.06 0.08 0.11 0.15 0.17 0.13 0.09 0.08 0.11 0.12 0.13 0.13 0.12 0.09 0.06 0.04 0.04 0.03 0.02 0.02
0.00 0.00 0.00 0.00 0.00 0.00 0.00 0.00 0.00 0.00 0.01 0.02 0.02 0.04 0.05 0.07 0.09 0.10 0.10 0.11 0.10 0.09 0.06 0.05 0.05 0.09 0.14 0.17 0.16 0.14 0.10 0.11 0.14 0.15 0.16 0.15 0.11 0.08 0.06 0.03 0.02 0.02 0.02
0.00 0.00 0.00 0.00 0.00 0.00 0.01 0.02 0.03 0.03 0.05 0.05 0.06 0.06 0.08 0.11 0.14 0.16 0.17 0.16 0.14 0.11 0.08 0.05 0.04 0.06 0.14 0.19 0.18 0.17 0.13 0.13 0.16 0.21 0.23 0.22 0.17 0.12 0.08 0.05 0.03 0.02 0.01
0.00 0.00 0.00 0.00 0.00 0.01 0.03 0.06 0.07 0.08 0.08 0.09 0.09 0.09 0.11 0.14 0.15 0.16 0.16 0.17 0.15 0.14 0.12 0.09 0.07 0.07 0.11 0.22 0.23 0.21 0.18 0.16 0.19 0.26 0.33 0.30 0.28 0.20 0.13 0.09 0.06 0.03 0.02
0.00 0.00 0.00 0.00 0.01 0.02 0.06 0.10 0.10 0.09 0.10 0.10 0.10 0.10 0.11 0.11 0.10 0.13 0.15 0.16 0.18 0.16 0.13 0.12 0.10 0.09 0.08 0.12 0.23 0.20 0.16 0.15 0.17 0.28 0.43 0.45 0.43 0.35 0.24 0.16 0.10 0.06 0.03
0.00 0.00 0.00 0.01 0.02 0.04 0.08 0.11 0.10 0.10 0.10 0.11 0.11 0.10 0.10 0.11 0.12 0.15 0.16 0.16 0.16 0.14 0.09 0.08 0.12 0.13 0.11 0.09 0.17 0.18 0.13 0.13 0.18 0.26 0.48 0.60 0.59 0.50 0.39 0.28 0.19 0.10 0.05
0.00 0.01 0.02 0.04 0.05 0.06 0.07 0.08 0.10 0.12 0.14 0.15 0.14 0.13 0.14 0.15 0.16 0.20 0.21 0.21 0.18 0.15 0.11 0.09 0.14 0.15 0.13 0.10 0.13 0.18 0.14 0.15 0.22 0.24 0.35 0.54 0.64 0.60 0.52 0.41 0.28 0.14 0.07
0.01 0.03 0.05 0.08 0.08 0.07 0.06 0.06 0.10 0.17 0.21 0.22 0.19 0.19 0.19 0.19 0.18 0.19 0.20 0.20 0.19 0.16 0.13 0.13 0.18 0.19 0.16 0.15 0.15 0.19 0.20 0.19 0.23 0.22 0.28 0.45 0.59 0.61 0.56 0.48 0.35 0.20 0.10
0.04 0.08 0.11 0.12 0.10 0.08 0.06 0.07 0.13 0.21 0.28 0.28 0.23 0.21 0.21 0.20 0.20 0.19 0.17 0.14 0.11 0.10 0.09 0.09 0.12 0.16 0.13 0.10 0.08 0.13 0.17 0.18 0.19 0.19 0.24 0.34 0.47 0.56 0.58 0.53 0.41 0.24 0.12